When you browse on this site, cookies collect data to enhance your experience and personalize the content and advertising you see.
Visit our Privacy Policy to learn more. By continuing to use the site, you agree to this use of cookies and data.
  • Em Portugal
  • Lista de países
  • Para 7 dias
  • Temperatura da água
  • Mapa do tempo
  • Widgets de tempo
  • user-avatar
    Iniciar Sessão

    Previsão horária em Chervlennye Buruny

    Hoje, 23 Setembro, Segunda-feira

    Tempo Temperatura Precipitação Vento Pressão Humidade
    00:00 +14°C° 0 mm 4 m/s 759 mmHg 46%
    01:00 +14°C° 0 mm 4 m/s 759 mmHg 48%
    02:00 +13°C° 0 mm 4 m/s 759 mmHg 50%
    03:00 +13°C° 0 mm 4 m/s 759 mmHg 53%
    04:00 +13°C° 0 mm 4 m/s 759 mmHg 53%
    05:00 +13°C° 0 mm 4 m/s 759 mmHg 53%
    06:00 +12°C° 0 mm 4 m/s 759 mmHg 53%
    07:00 +14°C° 0 mm 4 m/s 759 mmHg 48%
    08:00 +17°C° 0 mm 4 m/s 759 mmHg 43%
    09:00 +19°C° 0 mm 5 m/s 759 mmHg 38%
    10:00 +20°C° 0 mm 5 m/s 759 mmHg 36%
    11:00 +22°C° 0 mm 5 m/s 758 mmHg 35%
    12:00 +23°C° 0 mm 5 m/s 758 mmHg 33%
    13:00 +23°C° 0 mm 5 m/s 758 mmHg 32%
    14:00 +25°C° 0 mm 5 m/s 757 mmHg 30%
    15:00 +25°C° 0 mm 5 m/s 757 mmHg 29%
    16:00 +23°C° 0 mm 4 m/s 757 mmHg 31%
    17:00 +22°C° 0 mm 3 m/s 757 mmHg 34%
    18:00 +21°C° 0 mm 2 m/s 757 mmHg 36%
    19:00 +20°C° 0 mm 2 m/s 758 mmHg 39%
    20:00 +21°C° 0 mm 1 m/s 758 mmHg 41%
    21:00 +20°C° 0 mm 1 m/s 759 mmHg 43%
    22:00 +19°C° 0 mm 1 m/s 758 mmHg 44%
    23:00 +19°C° 0 mm 1 m/s 758 mmHg 45%

    Amanhã, 24 Setembro, Terça-feira

    Tempo Temperatura Precipitação Vento Pressão Humidade
    00:00 +18°C° 0 mm 1 m/s 758 mmHg 46%
    01:00 +17°C° 0 mm 2 m/s 758 mmHg 51%
    02:00 +16°C° 0 mm 2 m/s 758 mmHg 56%
    03:00 +14°C° 0 mm 3 m/s 758 mmHg 60%
    04:00 +14°C° 0 mm 3 m/s 758 mmHg 67%
    05:00 +14°C° 0 mm 2 m/s 758 mmHg 73%
    06:00 +14°C° 0 mm 2 m/s 758 mmHg 79%
    07:00 +15°C° 0 mm 2 m/s 758 mmHg 72%
    08:00 +17°C° 0 mm 2 m/s 758 mmHg 64%
    09:00 +19°C° 0 mm 2 m/s 758 mmHg 57%
    10:00 +20°C° 0 mm 2 m/s 758 mmHg 50%
    11:00 +23°C° 0 mm 2 m/s 758 mmHg 43%
    12:00 +24°C° 0 mm 2 m/s 757 mmHg 36%
    13:00 +25°C° 0 mm 2 m/s 757 mmHg 34%
    14:00 +25°C° 0 mm 2 m/s 757 mmHg 32%
    15:00 +26°C° 0 mm 2 m/s 757 mmHg 30%
    16:00 +25°C° 0 mm 4 m/s 757 mmHg 37%
    17:00 +22°C° 0 mm 5 m/s 757 mmHg 45%
    18:00 +21°C° 0 mm 7 m/s 757 mmHg 53%
    19:00 +20°C° 0 mm 6 m/s 757 mmHg 59%
    20:00 +19°C° 0 mm 6 m/s 757 mmHg 65%
    21:00 +17°C° 0 mm 5 m/s 757 mmHg 71%
    22:00 +17°C° 0 mm 5 m/s 757 mmHg 75%
    23:00 +17°C° 0 mm 5 m/s 757 mmHg 79%

    Depois de amanhã, 25 Setembro, Quarta-feira

    Tempo Temperatura Precipitação Vento Pressão Humidade
    00:00 +17°C° 0 mm 4 m/s 756 mmHg 83%
    01:00 +17°C° 0 mm 4 m/s 756 mmHg 85%
    02:00 +17°C° 0 mm 3 m/s 756 mmHg 86%
    03:00 +17°C° 0 mm 3 m/s 756 mmHg 88%
    04:00 +16°C° 0 mm 3 m/s 757 mmHg 88%
    05:00 +16°C° 0 mm 2 m/s 757 mmHg 89%
    06:00 +16°C° 0 mm 2 m/s 757 mmHg 89%
    07:00 +17°C° 0 mm 2 m/s 757 mmHg 81%
    08:00 +19°C° 0 mm 2 m/s 758 mmHg 72%
    09:00 +20°C° 0 mm 3 m/s 758 mmHg 64%
    10:00 +21°C° 0 mm 2 m/s 758 mmHg 58%
    11:00 +23°C° 0 mm 2 m/s 758 mmHg 52%
    12:00 +24°C° 0 mm 2 m/s 758 mmHg 47%
    13:00 +24°C° 0 mm 3 m/s 758 mmHg 46%
    14:00 +23°C° 0 mm 4 m/s 758 mmHg 45%
    15:00 +25°C° 0 mm 4 m/s 758 mmHg 44%
    16:00 +22°C° 0 mm 5 m/s 758 mmHg 50%
    17:00 +21°C° 0 mm 6 m/s 758 mmHg 56%
    18:00 +20°C° 0 mm 8 m/s 758 mmHg 62%
    19:00 +18°C° 0 mm 7 m/s 758 mmHg 67%
    20:00 +17°C° 0 mm 7 m/s 758 mmHg 71%
    21:00 +17°C° 0 mm 7 m/s 759 mmHg 75%
    22:00 +16°C° 0 mm 7 m/s 758 mmHg 77%
    23:00 +16°C° 0 mm 6 m/s 758 mmHg 79%

    26 Setembro, Quinta-feira

    Tempo Temperatura Precipitação Vento Pressão Humidade
    00:00 +16°C° 0 mm 6 m/s 758 mmHg 81%
    01:00 +16°C° 0 mm 6 m/s 758 mmHg 81%
    02:00 +16°C° 0 mm 6 m/s 758 mmHg 81%
    03:00 +16°C° 0 mm 6 m/s 757 mmHg 81%
    04:00 +16°C° 0 mm 6 m/s 757 mmHg 82%
    05:00 +16°C° 0 mm 5 m/s 757 mmHg 82%
    06:00 +15°C° 0 mm 4 m/s 757 mmHg 82%
    07:00 +16°C° 0 mm 5 m/s 757 mmHg 77%
    08:00 +17°C° 0 mm 5 m/s 757 mmHg 72%
    09:00 +19°C° 0 mm 6 m/s 757 mmHg 67%
    10:00 +20°C° 0 mm 6 m/s 757 mmHg 60%
    11:00 +22°C° 0 mm 6 m/s 757 mmHg 54%
    12:00 +23°C° 0 mm 5 m/s 757 mmHg 48%
    13:00 +23°C° 0 mm 6 m/s 757 mmHg 48%
    14:00 +23°C° 0 mm 6 m/s 757 mmHg 47%
    15:00 +23°C° 0 mm 6 m/s 757 mmHg 47%
    16:00 +22°C° 0 mm 7 m/s 757 mmHg 50%
    17:00 +21°C° 0 mm 7 m/s 758 mmHg 53%
    18:00 +20°C° 0 mm 7 m/s 758 mmHg 57%
    19:00 +18°C° 0 mm 7 m/s 758 mmHg 58%
    20:00 +18°C° 0 mm 7 m/s 758 mmHg 60%
    21:00 +17°C° 0 mm 6 m/s 758 mmHg 62%
    22:00 +17°C° 0 mm 6 m/s 757 mmHg 65%
    23:00 +17°C° 0 mm 6 m/s 757 mmHg 68%

    27 Setembro, Sexta-feira

    Tempo Temperatura Precipitação Vento Pressão Humidade
    00:00 +16°C° 0 mm 5 m/s 757 mmHg 71%
    01:00 +16°C° 0 mm 5 m/s 757 mmHg 72%
    02:00 +16°C° 0 mm 5 m/s 757 mmHg 73%
    03:00 +16°C° 0 mm 5 m/s 757 mmHg 74%
    04:00 +16°C° 0 mm 6 m/s 757 mmHg 74%
    05:00 +16°C° 0 mm 6 m/s 757 mmHg 73%
    06:00 +15°C° 0 mm 6 m/s 757 mmHg 72%
    07:00 +17°C° 0 mm 6 m/s 757 mmHg 66%
    08:00 +18°C° 0 mm 7 m/s 756 mmHg 60%
    09:00 +20°C° 0 mm 7 m/s 756 mmHg 55%
    10:00 +22°C° 0 mm 7 m/s 756 mmHg 50%
    11:00 +23°C° 0 mm 7 m/s 756 mmHg 44%
    12:00 +24°C° 0 mm 7 m/s 756 mmHg 39%
    13:00 +26°C° 0 mm 7 m/s 756 mmHg 39%
    14:00 +26°C° 0 mm 7 m/s 756 mmHg 38%
    15:00 +26°C° 0 mm 7 m/s 755 mmHg 37%
    16:00 +23°C° 0 mm 7 m/s 755 mmHg 41%
    17:00 +22°C° 0 mm 7 m/s 756 mmHg 45%
    18:00 +21°C° 0 mm 7 m/s 756 mmHg 49%
    19:00 +20°C° 0 mm 6 m/s 756 mmHg 52%
    20:00 +19°C° 0 mm 6 m/s 756 mmHg 54%
    21:00 +19°C° 0 mm 6 m/s 756 mmHg 57%
    22:00 +19°C° 0 mm 5 m/s 756 mmHg 56%
    23:00 +19°C° 0 mm 5 m/s 756 mmHg 56%

    28 Setembro, Sábado

    Tempo Temperatura Precipitação Vento Pressão Humidade
    00:00 +19°C° 0 mm 4 m/s 756 mmHg 55%
    01:00 +19°C° 0 mm 5 m/s 755 mmHg 55%
    02:00 +19°C° 0 mm 5 m/s 755 mmHg 55%
    03:00 +19°C° 0 mm 5 m/s 755 mmHg 55%
    04:00 +19°C° 0 mm 4 m/s 754 mmHg 55%
    05:00 +18°C° 0 mm 4 m/s 754 mmHg 55%
    06:00 +18°C° 0 mm 4 m/s 754 mmHg 54%
    07:00 +18°C° 0.1 mm 4 m/s 754 mmHg 56%
    08:00 +18°C° 0.1 mm 4 m/s 755 mmHg 57%
    09:00 +18°C° 0.1 mm 4 m/s 755 mmHg 59%
    10:00 +16°C° 1.5 mm 5 m/s 756 mmHg 67%
    11:00 +15°C° 1.5 mm 6 m/s 757 mmHg 74%
    12:00 +14°C° 1.5 mm 6 m/s 757 mmHg 82%
    13:00 +14°C° 0.2 mm 6 m/s 757 mmHg 81%
    14:00 +14°C° 0.2 mm 5 m/s 757 mmHg 80%
    15:00 +14°C° 0.2 mm 4 m/s 757 mmHg 78%
    16:00 +14°C° 0.3 mm 4 m/s 758 mmHg 80%
    17:00 +14°C° 0.3 mm 4 m/s 758 mmHg 83%
    18:00 +13°C° 0.3 mm 4 m/s 759 mmHg 85%
    19:00 +13°C° 0.4 mm 4 m/s 760 mmHg 85%
    20:00 +13°C° 0.4 mm 5 m/s 760 mmHg 86%
    21:00 +13°C° 0.4 mm 5 m/s 760 mmHg 87%
    22:00 +13°C° 0 mm 4 m/s 761 mmHg 86%
    23:00 +13°C° 0 mm 4 m/s 761 mmHg 85%
    Mostrar mais